KHBV

Details ICAO KHBV
Name JIM HOGG CO
Region United States
Timezone America/Chicago (UTC-5.0)
Plans Departing 2
Arriving 3
Stats Elevation 663 ft / 202 m (AMSL)
Location 27.349563° -98.736959°
Runways 1
Magnetic Variation 4.329° E
Sunrise 2018-05-27 11:42:51 UTC / 2018-05-27 06:42:51 Local
Sunset 2018-05-28 01:24:18 UTC / 2018-05-27 20:24:18 Local
Advertisement - Login to hide

Runways

ID Width Length Bearing (true) Bearing (mag) Surface Threshold Offset Overrun Length
13 75 ft / 23 m 5,003 ft / 1,525 m 134.39° 130.06° Asphalt 0 ft / 0 m 0 ft / 0 m
31 75 ft / 23 m 5,003 ft / 1,525 m 314.39° 310.06° Asphalt 0 ft / 0 m 0 ft / 0 m

Map

Weather


0- 5 10 15 20 25 30 35+ Temperature / ° C

Clouds and Precipitation
Forecast for 2018-05-27 18:00 UTC. Updated an hour ago

Ground ~20,000 ft ~40,000 ft Winds

METAR

KHBV 271755Z AUTO 13012G15KT 10SM CLR 34/17 A2982 RMK AO2 T03380168 10370 20149

TAF

Not found

Frequencies

Recorded 118.07 MHz AWOS 3
Unicom 122.80 MHz CTAF/UNICOM
Warning: Do not use this data for real-world aviation or navigation. No guarantee of current accuracy is given.